Avoca, PA

12:44 AM EDT on October 17, 2017 (GMT -0400)
Wilkes-Barre-Scranton International

Weather History for KAVP - March, 2013

Change the Weather History Date:

Monday, March 25, 2013

  Actual Average Record
Temperature  
Mean Temperature 35 °F 40 °F  
Max Temperature 39 °F 50 °F 76 °F (1913)
Min Temperature 31 °F 31 °F 10 °F (1974)
Degree Days  
Heating Degree Days 30 25  
Month to date heating degree days 776 730  
Since 1 July heating degree days 5000 5336  
Cooling Degree Days 0 0  
Month to date cooling degree days 0 0  
Year to date cooling degree days 0 0  
Moisture  
Dew Point 28 °F    
Average Humidity 74    
Maximum Humidity 96    
Minimum Humidity 52    
Precipitation  
Precipitation 0.09 in 0.09 in 1.14 in (1909)
Month to date precipitation 1.50 1.99  
Year to date precipitation 4.83 6.39  
Sea Level Pressure  
Sea Level Pressure 29.57 in    
Wind  
Wind Speed 7 mph (SW)    
Max Wind Speed 15 mph    
Max Gust Speed 21 mph    
Visibility 5 miles    
Events Fog , Snow    
T = Trace of Precipitation, MM = Missing Value Source: NWS Daily Summary

Daily Weather History Graph

Daily Weather History Graph

Search for Another Location

Airport or City:

Trip Planner

Search our weather history database for the weather conditions in past years. The results will help you decide how hot, cold, wet, or windy it might be!

Date:

Astronomy

Mar. 25, 2013 Rise Set
Actual Time 6:57 AM EDT 7:20 PM EDT
Civil Twilight 6:29 AM EDT 7:48 PM EDT
Nautical Twilight 5:57 AM EDT 8:21 PM EDT
Astronomical Twilight 5:23 AM EDT 8:54 PM EDT
Moon 5:49 PM EDT (3/25) 5:40 AM EDT (3/25)
Length of Visible Light 13h 18m
Length of Day
12h 23m
Waxing Gibbous, 96% of the Moon is Illuminated
Mar 25
Waxing Gibbous
Mar 27
Full
Apr 3
Last Quarter
Apr 10
New
Apr 18
First Quarter

Hourly Weather History & Observations

Time (EDT) Temp. Windchill Dew Point Humidity Pressure Visibility Wind Dir Wind Speed Gust Speed Precip Events Conditions
12:54 AM 36.0 °F 32.1 °F 19.9 °F 52% 29.67 in 10.0 mi Variable 4.6 mph - N/A   Clear
1:54 AM 35.1 °F 30.1 °F 21.9 °F 59% 29.65 in 10.0 mi NE 5.8 mph - N/A   Mostly Cloudy
2:54 AM 35.1 °F 32.2 °F 21.9 °F 59% 29.63 in 10.0 mi NE 3.5 mph - N/A   Scattered Clouds
3:54 AM 34.0 °F 28.0 °F 21.9 °F 61% 29.59 in 10.0 mi Variable 6.9 mph - N/A   Overcast
4:54 AM 35.1 °F 29.3 °F 21.0 °F 57% 29.59 in 10.0 mi NE 6.9 mph - N/A   Overcast
5:54 AM 34.0 °F 31.0 °F 21.9 °F 61% 29.61 in 10.0 mi Variable 3.5 mph - N/A   Overcast
6:54 AM 34.0 °F 29.8 °F 21.9 °F 61% 29.61 in 10.0 mi NE 4.6 mph - N/A   Overcast
7:54 AM 34.0 °F 28.8 °F 23.0 °F 64% 29.60 in 10.0 mi ENE 5.8 mph - N/A   Overcast
8:54 AM 32.0 °F 24.8 °F 26.1 °F 79% 29.60 in 1.5 mi NE 8.1 mph - 0.00 in Snow Light Snow
9:03 AM 32.0 °F 25.6 °F 26.6 °F 80% 29.58 in 1.0 mi NE 6.9 mph - 0.00 in Snow Light Snow
9:10 AM 30.2 °F 24.3 °F 28.4 °F 93% 29.58 in 0.8 mi Variable 5.8 mph - 0.01 in Snow Light Snow
9:21 AM 30.2 °F 22.6 °F 28.4 °F 93% 29.58 in 0.5 mi NE 8.1 mph - 0.01 in Fog , Snow Snow
9:54 AM 32.0 °F 25.6 °F 28.9 °F 88% 29.59 in 1.0 mi Variable 6.9 mph - 0.03 in Snow Light Snow
10:12 AM 32.0 °F 26.4 °F 28.4 °F 87% 29.57 in 0.8 mi Variable 5.8 mph - 0.00 in Snow Light Snow
10:44 AM 32.0 °F 26.4 °F 28.4 °F 87% 29.57 in 1.0 mi Variable 5.8 mph - 0.01 in Snow Light Snow
10:54 AM 32.0 °F 25.6 °F 28.9 °F 88% 29.59 in 1.0 mi Variable 6.9 mph - 0.02 in Snow Light Snow
11:28 AM 33.8 °F 29.6 °F 28.4 °F 81% 29.55 in 2.0 mi Variable 4.6 mph - 0.00 in Snow Light Snow
11:38 AM 33.8 °F 28.6 °F 28.4 °F 81% 29.55 in 3.0 mi Variable 5.8 mph - 0.00 in Snow Light Snow
11:54 AM 34.0 °F 28.8 °F 28.9 °F 82% 29.56 in 3.0 mi Variable 5.8 mph - 0.00 in Snow Light Snow
12:05 PM 33.8 °F 27.7 °F 28.4 °F 81% 29.54 in 2.5 mi NE 6.9 mph - 0.00 in Snow Light Snow
12:15 PM 33.8 °F 28.6 °F 28.4 °F 81% 29.53 in 1.0 mi Variable 5.8 mph - 0.00 in Snow Light Snow
12:54 PM 35.1 °F 30.1 °F 28.9 °F 78% 29.54 in 2.5 mi Variable 5.8 mph - 0.01 in Snow Light Snow
1:01 PM 35.6 °F 30.7 °F 28.4 °F 75% 29.52 in 4.0 mi Variable 5.8 mph - 0.00 in Snow Light Snow
1:54 PM 37.9 °F 30.9 °F 24.1 °F 57% 29.52 in 10.0 mi East 10.4 mph - 0.00 in   Overcast
2:54 PM 37.0 °F 33.3 °F 26.1 °F 65% 29.51 in 10.0 mi Variable 4.6 mph - 0.00 in   Overcast
3:54 PM 36.0 °F 31.1 °F 28.0 °F 73% 29.51 in 8.0 mi West 5.8 mph - 0.00 in Snow Light Snow
4:54 PM 36.0 °F 33.3 °F 28.0 °F 73% 29.51 in 4.0 mi SW 3.5 mph - 0.00 in Snow Light Snow
5:01 PM 35.6 °F 30.7 °F 28.4 °F 75% 29.50 in 5.0 mi SW 5.8 mph - 0.00 in Snow Light Snow
5:29 PM 35.6 °F 30.7 °F 30.2 °F 81% 29.51 in 1.8 mi West 5.8 mph - 0.00 in Snow Light Snow
5:54 PM 33.1 °F 30.0 °F 30.9 °F 92% 29.53 in 1.0 mi WSW 3.5 mph - 0.01 in Snow Light Snow
6:06 PM 33.8 °F 30.8 °F 32.0 °F 93% 29.52 in 1.2 mi SW 3.5 mph - 0.00 in Snow Light Snow
6:15 PM 33.8 °F 30.8 °F 32.0 °F 93% 29.52 in 1.5 mi WSW 3.5 mph - 0.00 in Snow Light Snow
6:54 PM 33.1 °F 26.1 °F 32.0 °F 96% 29.56 in 2.0 mi SSW 8.1 mph - 0.01 in Snow Light Snow
7:05 PM 33.8 °F - 32.0 °F 93% 29.54 in 3.0 mi Calm Calm - 0.00 in Snow Light Snow
7:49 PM 33.8 °F 27.7 °F 32.0 °F 93% 29.56 in 2.5 mi SSW 6.9 mph - 0.00 in Snow Light Snow
7:54 PM 33.1 °F 25.5 °F 32.0 °F 96% 29.58 in 2.5 mi SSW 9.2 mph - 0.01 in Snow Light Snow
8:10 PM 33.8 °F 27.7 °F 32.0 °F 93% 29.57 in 2.5 mi SSW 6.9 mph - 0.00 in Snow Light Snow
8:19 PM 33.8 °F 26.4 °F 32.0 °F 93% 29.57 in 4.0 mi SSW 9.2 mph - 0.00 in   Overcast
8:26 PM 33.8 °F 26.4 °F 32.0 °F 93% 29.57 in 5.0 mi SSW 9.2 mph - 0.00 in   Overcast
8:54 PM 33.1 °F 24.9 °F 32.0 °F 96% 29.60 in 6.0 mi SSW 10.4 mph - 0.00 in   Overcast
9:54 PM 33.1 °F 25.5 °F 32.0 °F 96% 29.62 in 7.0 mi SSW 9.2 mph - N/A   Overcast
10:54 PM 34.0 °F 27.2 °F 30.9 °F 89% 29.63 in 10.0 mi SW 8.1 mph - N/A   Overcast
11:54 PM 33.1 °F 26.9 °F 30.9 °F 92% 29.62 in 9.0 mi SSW 6.9 mph - N/A   Scattered Clouds